Zurück zum Katalog

BREEZE-KM R/B

AktivPO
NORAD 40556·ROCKET BODY·🇷🇺 Russia

Gestartet Mar 31, 2015 von Plesetsk Cosmodrome

Loading…

Nächste Überflüge (nächste 24 Stunden)

TLE

AktuellSource: Space-Track

Epoche: Sep 14, 2026, 15:42 UTC

1 40556U 15020E   26257.65437022  .00000026  00000-0  60430-4 0  9994
2 40556  82.4913 146.3550 0214456 198.7626 160.5485 12.80561932535609

Verfolge BREEZE-KM R/B in Echtzeit mit AllMySat

Download on the App Store